Location: *
(40.4000°N, 15.1200°E)
Time: 06:45:59
(UTC+00:00)

COSMOS 2455 - Pass Details

Date: 09 April 2020
Orbit: 900 x 910 km, 67.1° (Epoch: 25 May)

Event Time Altitude Azimuth Distance (km) Brightness Sun altitude
Rises 20:04:08 0° 324° (NW) 3,544 7.1 -26.8°
Reaches altitude 10° 20:06:47 10° 317° (NW) 2,599 6.2 -27.2°
Maximum altitude 20:12:20 40° 250° (WSW) 1,320 3.8 -28.0°
Enters shadow 20:13:56 33° 215° (SW) 1,470 3.8 -28.2°
